Powrót do katalogu

THOR ABLESTAR DEB

AktywnyLEO
NORAD 133·DEBRIS·🇺🇸 United States

Wystrzelony Jun 29, 1961 z Cape Canaveral Space Force Station

Loading…

Następne Przeloty (najbliższe 24 godziny)

TLE

ŚwieżeSource: Space-Track

Epoka: Sep 5, 2026, 15:35 UTC

1 00133U 61015T   26248.64936809  .00000310  00000-0  17103-3 0  9996
2 00133  67.1160  15.0744 0044390  72.7220 287.8728 14.23133186344938

Śledź THOR ABLESTAR DEB w czasie rzeczywistym z AllMySat

Download on the App Store